C9756 Weather Reports


Display with metric or nautical units.
time (UTC)temp
F
wind
direction
speed
MPH
gust
MPH
rain 1hr
in
rain 24hr
in
rain mn
in
humidity
%
barometer
mb
20260510201841 82 225 1.0 5.0 0.00 0.00 0.00 31 1014.0
20260510201342 82 235 0.0 5.0 0.00 0.00 0.00 31 1014.2
20260510200840 82 126 0.0 3.0 0.00 0.00 0.00 31 1014.2
20260510200340 82 238 1.0 5.0 0.00 0.00 0.00 30 1014.3
20260510195842 83 238 1.0 5.0 0.00 0.00 0.00 30 1014.3
20260510195340 83 225 1.0 5.0 0.00 0.00 0.00 30 1014.3
20260510194845 83 226 1.0 5.0 0.00 0.00 0.00 30 1014.5
20260510194840 83 231 1.0 5.0 0.00 0.00 0.00 31 1014.4
20260510193840 83 229 0.0 4.0 0.00 0.00 0.00 30 1014.5
20260510193341 83 6 0.0 3.0 0.00 0.00 0.00 31 1014.4
20260510192844 83 235 1.0 4.0 0.00 0.00 0.00 30 1014.5
20260510192838 83 284 1.0 4.0 0.00 0.00 0.00 30 1014.4
20260510191838 83 229 1.0 4.0 0.00 0.00 0.00 33 1014.6
20260510191339 83 249 1.0 4.0 0.00 0.00 0.00 32 1014.6
20260510190838 82 0 1.0 5.0 0.00 0.00 0.00 34 1014.6
20260510190339 82 229 2.0 6.0 0.00 0.00 0.00 30 1014.7
20260510185840 82 235 2.0 6.0 0.00 0.00 0.00 29 1014.7
20260510185343 83 229 1.0 4.0 0.00 0.00 0.00 30 1014.7
20260510185338 83 233 1.0 5.0 0.00 0.00 0.00 31 1014.7
20260510184956 83 240 1.0 4.0 0.00 0.00 0.00 30 1014.7
20260510183837 83 128 1.0 4.0 0.00 0.00 0.00 31 1014.7
20260510183339 83 259 1.0 4.0 0.00 0.00 0.00 31 1014.7
20260510182841 83 228 1.0 3.0 0.00 0.00 0.00 32 1014.9
20260510182836 84 226 0.0 3.0 0.00 0.00 0.00 34 1014.7
20260510181836 83 232 0.0 3.0 0.00 0.00 0.00 31 1014.9
20260510181337 84 243 0.0 2.0 0.00 0.00 0.00 30 1015.0
20260510180834 83 217 0.0 3.0 0.00 0.00 0.00 32 1015.1
20260510180334 83 250 0.0 3.0 0.00 0.00 0.00 32 1015.2
20260510175836 82 216 0.0 3.0 0.00 0.00 0.00 31 1015.2
20260510175334 82 283 0.0 3.0 0.00 0.00 0.00 30 1015.2
20260510174834 81 84 1.0 3.0 0.00 0.00 0.00 32 1015.3
20260510174335 82 6 1.0 3.0 0.00 0.00 0.00 34 1015.3
20260510173833 83 252 0.0 3.0 0.00 0.00 0.00 31 1015.4
20260510173334 83 117 0.0 2.0 0.00 0.00 0.00 31 1015.4
20260510172834 83 206 0.0 3.0 0.00 0.00 0.00 35 1015.5
20260510172332 82 210 1.0 4.0 0.00 0.00 0.00 37 1015.6
20260510171838 82 253 0.0 2.0 0.00 0.00 0.00 32 1015.7
20260510171833 82 242 1.0 4.0 0.00 0.00 0.00 32 1015.6
20260510170833 83 36 0.0 2.0 0.00 0.00 0.00 32 1015.7
20260510170332 82 236 0.0 2.0 0.00 0.00 0.00 34 1015.6
20260510165834 82 229 1.0 4.0 0.00 0.00 0.00 32 1015.7
20260510165337 82 333 0.0 1.0 0.00 0.00 0.00 28 1015.7
20260510165332 81 235 1.0 4.0 0.00 0.00 0.00 30 1015.7
20260510164331 81 281 0.0 2.0 0.00 0.00 0.00 30 1015.7
20260510163830 81 34 0.0 2.0 0.00 0.00 0.00 31 1015.7
20260510163335 81 51 0.0 2.0 0.00 0.00 0.00 34 1015.7
20260510163330 81 84 0.0 2.0 0.00 0.00 0.00 37 1015.7
20260510162328 81 259 0.0 3.0 0.00 0.00 0.00 38 1015.7
20260510161830 81 222 0.0 3.0 0.00 0.00 0.00 34 1015.7
20260510161330 80 96 0.0 1.0 0.00 0.00 0.00 35 1015.9
20260510160826 80 131 0.0 2.0 0.00 0.00 0.00 38 1015.9
20260510160326 79 79 0.0 2.0 0.00 0.00 0.00 40 1015.9
20260510155826 80 86 0.0 2.0 0.00 0.00 0.00 42 1015.9
20260510155324 80 353 0.0 2.0 0.00 0.00 0.00 42 1015.9
20260510154824 80 84 0.0 1.0 0.00 0.00 0.00 39 1015.9
20260510154324 80 208 0.0 3.0 0.00 0.00 0.00 39 1016.0
20260510153824 80 260 0.0 3.0 0.00 0.00 0.00 42 1015.9
20260510153326 79 232 0.0 2.0 0.00 0.00 0.00 43 1016.1
20260510152829 79 88 0.0 1.0 0.00 0.00 0.00 43 1016.0
20260510152824 78 205 0.0 1.0 0.00 0.00 0.00 41 1016.1
20260510151825 78 113 0.0 1.0 0.00 0.00 0.00 43 1016.0
20260510151326 79 122 0.0 1.0 0.00 0.00 0.00 45 1016.1
20260510150826 79 104 0.0 1.0 0.00 0.00 0.00 43 1016.0
20260510150332 78 281 0.0 1.0 0.00 0.00 0.00 47 1016.0
20260510150326 78 229 0.0 1.0 0.00 0.00 0.00 47 1016.0
20260510145326 77 194 0.0 2.0 0.00 0.00 0.00 48 1016.0
20260510144825 77 195 0.0 2.0 0.00 0.00 0.00 49 1016.0
20260510144326 76 250 0.0 1.0 0.00 0.00 0.00 50 1016.1
20260510143824 76 186 0.0 1.0 0.00 0.00 0.00 53 1016.1
20260510143331 75 233 0.0 1.0 0.00 0.00 0.00 56 1016.0
20260510143325 75 225 0.0 1.0 0.00 0.00 0.00 53 1016.1
20260510142323 74 153 0.0 1.0 0.00 0.00 0.00 55 1016.1
20260510141822 73 188 0.0 1.0 0.00 0.00 0.00 57 1016.2
20260510141323 73 44 0.0 1.0 0.00 0.00 0.00 61 1016.1
20260510140823 73 314 0.0 1.0 0.00 0.00 0.00 69 1016.1
20260510140323 72 101 0.0 0.0 0.00 0.00 0.00 73 1016.0
20260510135823 71 100 0.0 1.0 0.00 0.00 0.00 74 1016.0
20260510135322 70 84 0.0 2.0 0.00 0.00 0.00 75 1016.0
20260510134824 69 86 0.0 2.0 0.00 0.00 0.00 79 1016.1
20260510134323 67 139 0.0 1.0 0.00 0.00 0.00 87 1016.1
20260510133829 64 145 0.0 1.0 0.00 0.00 0.00 92 1015.8
20260510133824 66 145 0.0 1.0 0.00 0.00 0.00 91 1016.0
20260510132939 61 225 0.0 0.0 0.00 0.00 0.00 93 1015.8
20260510132826 62 226 0.0 0.0 0.00 0.00 0.00 93 1015.9
20260510132821 62 183 0.0 1.0 0.00 0.00 0.00 92 1015.8
20260510131321 60 225 0.0 1.0 0.00 0.00 0.00 93 1015.8
20260510130820 60 225 0.0 1.0 0.00 0.00 0.00 93 1015.8
20260510130320 60 235 0.0 1.0 0.00 0.00 0.00 93 1015.9
20260510125823 59 235 0.0 1.0 0.00 0.00 0.00 93 1015.8
20260510125818 59 235 0.0 0.0 0.00 0.00 0.00 93 1015.9
20260510125315 58 235 0.0 1.0 0.00 0.00 0.00 93 1015.7
20260510124317 58 235 0.0 0.0 0.00 0.00 0.00 93 1015.8
20260510123815 57 235 0.0 0.0 0.00 0.00 0.00 93 1015.7
20260510123320 57 235 0.0 0.0 0.00 0.00 0.00 93 1015.6
20260510123315 57 236 0.0 0.0 0.00 0.00 0.00 93 1015.7
20260510122314 56 235 0.0 0.0 0.00 0.00 0.00 93 1015.5
20260510121815 56 235 0.0 0.0 0.00 0.00 0.00 93 1015.4
20260510121312 56 235 0.0 0.0 0.00 0.00 0.00 92 1015.3
20260510120813 55 235 0.0 0.0 0.00 0.00 0.00 92 1015.2
20260510120314 55 235 0.0 0.0 0.00 0.00 0.00 92 1015.1
20260510115811 55 235 0.0 0.0 0.00 0.00 0.00 92 1015.0
20260510115312 54 235 0.0 0.0 0.00 0.00 0.00 92 1014.7
20260510114811 54 235 0.0 0.0 0.00 0.00 0.00 92 1014.6
20260510114311 54 236 0.0 0.0 0.00 0.00 0.00 92 1014.5
20260510113810 54 235 0.0 0.0 0.00 0.00 0.00 92 1014.6
20260510113310 54 235 0.0 0.0 0.00 0.00 0.00 92 1014.5
20260510112810 54 235 0.0 0.0 0.00 0.00 0.00 92 1014.5
20260510112312 54 235 0.0 0.0 0.00 0.00 0.00 92 1014.4
20260510111808 54 235 0.0 0.0 0.00 0.00 0.00 92 1014.3
20260510111310 54 235 0.0 0.0 0.00 0.00 0.00 92 1014.3
20260510110808 54 235 0.0 0.0 0.00 0.00 0.00 92 1014.2
20260510110309 54 235 0.0 1.0 0.00 0.00 0.00 92 1014.2
20260510105806 54 235 0.0 1.0 0.00 0.00 0.00 92 1014.0
20260510105308 54 235 0.0 0.0 0.00 0.00 0.00 92 1013.9
20260510104809 54 235 0.0 0.0 0.00 0.00 0.00 92 1013.9
20260510104306 54 235 0.0 0.0 0.00 0.00 0.00 92 1013.8
20260510103807 54 235 0.0 0.0 0.00 0.00 0.00 92 1013.7
20260510103311 54 235 0.0 0.0 0.00 0.00 0.00 92 1013.5
20260510103305 54 235 0.0 0.0 0.00 0.00 0.00 92 1013.5
20260510102805 54 235 0.0 0.0 0.00 0.00 0.00 92 1013.5
20260510101803 54 235 0.0 0.0 0.00 0.00 0.00 92 1013.4
20260510101303 54 235 0.0 0.0 0.00 0.00 0.00 92 1013.4
20260510100803 54 235 0.0 0.0 0.00 0.00 0.00 92 1013.3
20260510100302 55 235 0.0 0.0 0.00 0.00 0.00 92 1013.3
20260510095802 55 235 0.0 0.0 0.00 0.00 0.00 92 1013.2
20260510095305 55 235 0.0 0.0 0.00 0.00 0.00 92 1013.2
20260510094805 55 235 0.0 0.0 0.00 0.00 0.00 92 1013.0
20260510094302 55 235 0.0 0.0 0.00 0.00 0.00 92 1012.9
20260510093803 55 236 0.0 0.0 0.00 0.00 0.00 92 1012.9
20260510093303 56 235 0.0 0.0 0.00 0.00 0.00 92 1012.9
20260510092803 56 236 0.0 0.0 0.00 0.00 0.00 92 1012.9
20260510092306 56 235 0.0 0.0 0.00 0.00 0.00 92 1012.8
20260510091800 56 235 0.0 0.0 0.00 0.00 0.00 92 1012.9
20260510091300 56 235 0.0 0.0 0.00 0.00 0.00 92 1012.8
20260510090759 56 234 0.0 0.0 0.00 0.00 0.00 92 1012.7
20260510090303 56 235 0.0 0.0 0.00 0.00 0.00 92 1012.6
20260510090259 56 235 0.0 0.0 0.00 0.00 0.00 92 1012.6
20260510085257 57 234 0.0 0.0 0.00 0.00 0.00 92 1012.6
20260510084801 57 235 0.0 1.0 0.00 0.00 0.00 91 1012.5
20260510084757 57 235 0.0 1.0 0.00 0.00 0.00 92 1012.5
20260510083756 57 235 0.0 1.0 0.00 0.00 0.00 91 1012.4
20260510083257 57 235 0.0 0.0 0.00 0.00 0.00 91 1012.3
20260510082802 57 235 0.0 0.0 0.00 0.00 0.00 91 1012.2
20260510082757 57 235 0.0 0.0 0.00 0.00 0.00 91 1012.3
20260510081755 57 235 0.0 0.0 0.00 0.00 0.00 91 1012.2
20260510081254 58 235 0.0 0.0 0.00 0.00 0.00 91 1012.1
20260510080756 58 235 0.0 0.0 0.00 0.00 0.00 91 1012.1
20260510080254 58 235 0.0 0.0 0.00 0.00 0.00 91 1012.2
20260510075755 58 235 0.0 0.0 0.00 0.00 0.00 91 1012.2
20260510075257 58 235 0.0 0.0 0.00 0.00 0.00 91 1012.0
20260510074756 58 235 0.0 0.0 0.00 0.00 0.00 91 1011.9
20260510074301 58 235 0.0 0.0 0.00 0.00 0.00 91 1011.8
20260510074256 58 235 0.0 0.0 0.00 0.00 0.00 91 1011.9
20260510073254 58 235 0.0 0.0 0.00 0.00 0.00 91 1011.8
20260510072752 58 235 0.0 0.0 0.00 0.00 0.00 91 1011.9
20260510072251 58 235 0.0 0.0 0.00 0.00 0.00 91 1011.7
20260510071750 58 235 0.0 0.0 0.00 0.00 0.00 91 1011.6
20260510071251 58 235 0.0 0.0 0.00 0.00 0.00 91 1011.6
20260510070755 58 235 0.0 0.0 0.00 0.00 0.00 91 1011.6
20260510070750 58 235 0.0 0.0 0.00 0.00 0.00 91 1011.6
20260510065752 58 235 0.0 0.0 0.00 0.00 0.00 91 1011.6
20260510065251 58 235 0.0 0.0 0.00 0.00 0.00 91 1011.6
20260510064756 59 235 0.0 0.0 0.00 0.00 0.00 91 1011.6
20260510064751 58 235 0.0 0.0 0.00 0.00 0.00 91 1011.7
20260510064248 59 235 0.0 0.0 0.00 0.00 0.00 91 1011.7
20260510063247 59 235 0.0 0.0 0.00 0.00 0.00 91 1011.6
20260510062747 59 234 0.0 0.0 0.00 0.00 0.00 91 1011.6
20260510062247 59 235 0.0 0.0 0.00 0.00 0.00 91 1011.7
20260510061746 59 235 0.0 0.0 0.00 0.00 0.00 91 1011.7
20260510061251 60 235 0.0 0.0 0.00 0.00 0.00 91 1011.7
20260510061246 59 235 0.0 0.0 0.00 0.00 0.00 91 1011.7
20260510060247 60 235 0.0 1.0 0.00 0.00 0.00 91 1011.7
20260510055747 60 234 0.0 1.0 0.00 0.00 0.00 91 1011.8
20260510055245 60 235 0.0 1.0 0.00 0.00 0.00 90 1011.9
20260510054746 60 235 0.0 1.0 0.00 0.00 0.00 90 1011.8
20260510054244 60 234 0.0 1.0 0.00 0.00 0.00 90 1011.8
20260510053746 61 235 0.0 1.0 0.00 0.00 0.00 90 1011.8
20260510053243 61 235 0.0 1.0 0.00 0.00 0.00 90 1011.9
20260510052742 61 235 0.0 1.0 0.00 0.00 0.00 90 1011.9
20260510052244 61 235 0.0 1.0 0.00 0.00 0.00 90 1011.9
20260510051741 61 235 0.0 1.0 0.00 0.00 0.00 89 1012.0
20260510051240 62 235 0.0 0.0 0.00 0.00 0.00 89 1012.0
20260510050741 62 235 0.0 1.0 0.00 0.00 0.00 89 1012.2
20260510050244 62 235 0.0 1.0 0.00 0.00 0.00 89 1012.2
20260510050240 62 235 0.0 1.0 0.00 0.00 0.00 89 1012.2
20260510045238 62 233 0.0 1.0 0.00 0.00 0.00 89 1012.2
20260510044737 62 240 0.0 1.0 0.00 0.00 0.00 89 1012.1
20260510044237 62 251 0.0 1.0 0.00 0.00 0.00 89 1012.1
20260510043736 62 233 0.0 1.0 0.00 0.00 0.00 89 1012.1
20260510043238 62 233 0.0 1.0 0.00 0.00 0.00 89 1012.2
20260510042737 62 233 1.0 2.0 0.00 0.00 0.00 90 1012.1
20260510042242 62 235 0.0 2.0 0.00 0.00 0.00 90 1012.2
20260510042237 62 233 1.0 2.0 0.00 0.00 0.00 90 1012.3
20260510041236 61 238 0.0 1.0 0.00 0.00 0.00 90 1012.4
20260510040738 61 229 0.0 1.0 0.00 0.00 0.00 90 1012.4
20260510040236 61 229 0.0 0.0 0.00 0.00 0.00 89 1012.2
20260510035735 61 229 0.0 0.0 0.00 0.00 0.00 89 1012.3
20260510035241 62 229 0.0 0.0 0.00 0.00 0.00 89 1012.3
20260510035236 61 229 0.0 0.0 0.00 0.00 0.00 89 1012.3
20260510034234 62 229 0.0 0.0 0.00 0.00 0.00 89 1012.3
20260510033740 62 229 0.0 0.0 0.00 0.00 0.00 88 1012.3
20260510033734 62 229 0.0 0.0 0.00 0.00 0.00 89 1012.3
20260510032737 63 229 0.0 0.0 0.00 0.00 0.00 88 1012.2
20260510032234 63 229 0.0 0.0 0.00 0.00 0.00 88 1012.2
20260510031736 63 229 0.0 0.0 0.00 0.00 0.00 88 1012.2
20260510031234 64 229 0.0 1.0 0.00 0.00 0.00 87 1012.1
20260510030739 64 229 0.0 1.0 0.00 0.00 0.00 86 1012.1
20260510030734 64 229 0.0 1.0 0.00 0.00 0.00 87 1012.2
20260510025736 65 229 0.0 1.0 0.00 0.00 0.00 86 1012.2
20260510025237 65 229 0.0 0.0 0.00 0.00 0.00 85 1012.1
20260510024735 65 229 0.0 0.0 0.00 0.00 0.00 85 1012.1
20260510024236 65 229 0.0 0.0 0.00 0.00 0.00 85 1012.1
20260510023736 66 229 0.0 2.0 0.00 0.00 0.00 85 1012.1
20260510023234 66 229 0.0 2.0 0.00 0.00 0.00 84 1012.1
20260510022733 66 229 0.0 1.0 0.00 0.00 0.00 84 1011.9
20260510022231 66 229 0.0 1.0 0.00 0.00 0.00 84 1011.9
20260510021730 66 228 0.0 1.0 0.00 0.00 0.00 84 1011.9
20260510021230 66 226 0.0 0.0 0.00 0.00 0.00 84 1011.9
20260510020731 66 226 0.0 0.0 0.00 0.00 0.00 84 1011.8
20260510020231 66 226 0.0 0.0 0.00 0.00 0.00 83 1011.9
20260510015732 67 226 0.0 0.0 0.00 0.00 0.00 83 1011.7
20260510015231 67 226 0.0 1.0 0.00 0.00 0.00 82 1011.6
20260510014731 67 226 0.0 1.0 0.00 0.00 0.00 82 1011.6
20260510014231 67 226 0.0 2.0 0.00 0.00 0.00 82 1011.5
20260510013733 67 226 0.0 2.0 0.00 0.00 0.00 82 1011.6
20260510013228 67 232 0.0 1.0 0.00 0.00 0.00 82 1011.4
20260510012730 67 232 0.0 2.0 0.00 0.00 0.00 81 1011.3
20260510012228 67 232 1.0 2.0 0.00 0.00 0.00 81 1011.3
20260510011727 67 231 1.0 2.0 0.00 0.00 0.00 81 1011.3
20260510011227 67 235 0.0 2.0 0.00 0.00 0.00 81 1011.2
20260510010730 67 232 0.0 2.0 0.00 0.00 0.00 81 1011.1
20260510010725 67 232 0.0 2.0 0.00 0.00 0.00 81 1011.1
20260510010344 67 232 1.0 2.0 0.00 0.00 0.00 82 1011.0
20260510005842 67 225 1.0 2.0 0.00 0.00 0.00 82 1010.7
20260510004724 67 219 1.0 2.0 0.00 0.00 0.00 82 1010.9
20260510004226 67 233 0.0 1.0 0.00 0.00 0.00 81 1010.7
20260510003725 67 233 0.0 0.0 0.00 0.00 0.00 81 1010.6
20260510003225 67 233 0.0 1.0 0.00 0.00 0.00 81 1010.4
20260510002724 68 233 0.0 1.0 0.00 0.00 0.00 80 1010.3
20260510002225 68 233 0.0 1.0 0.00 0.00 0.00 79 1010.2
20260510001729 68 233 0.0 2.0 0.00 0.00 0.00 78 1010.1
20260510001725 68 233 0.0 1.0 0.00 0.00 0.00 78 1010.1
20260510000724 68 233 0.0 2.0 0.00 0.00 0.00 77 1010.1
20260510000226 69 226 0.0 2.0 0.00 0.00 0.00 77 1010.0
20260509235845 69 226 1.0 2.0 0.00 0.00 0.00 76 1009.9
20260509235730 69 226 1.0 2.0 0.00 0.00 0.00 76 1010.0
20260509235725 69 228 0.0 2.0 0.00 0.00 0.00 77 1010.0
20260509234841 69 232 1.0 2.0 0.00 0.00 0.00 76 1009.9
20260509233727 69 232 0.0 2.0 0.00 0.00 0.00 75 1009.8
20260509233225 70 233 0.0 2.0 0.00 0.00 0.00 75 1009.8
20260509232725 70 248 0.0 2.0 0.00 0.00 0.00 75 1009.9
20260509232227 70 225 1.0 3.0 0.00 0.00 0.00 75 1009.8
20260509231725 70 250 1.0 5.0 0.00 0.00 0.00 75 1009.8
20260509231224 70 229 1.0 5.0 0.00 0.00 0.00 75 1009.8
20260509230725 70 225 1.0 3.0 0.00 0.00 0.00 75 1009.9
20260509230230 71 36 0.0 2.0 0.00 0.00 0.00 75 1009.6
20260509230225 71 257 1.0 2.0 0.00 0.00 0.00 75 1009.8
20260509225224 71 20 0.0 2.0 0.00 0.00 0.00 75 1009.5
20260509224725 71 229 1.0 2.0 0.00 0.00 0.00 73 1009.5
20260509224224 71 259 1.0 5.0 0.00 0.00 0.00 74 1009.5
20260509223726 71 215 2.0 5.0 0.00 0.00 0.00 73 1009.5
20260509223225 71 239 2.0 5.0 0.00 0.00 0.00 72 1009.4
20260509222727 72 241 1.0 4.0 0.00 0.00 0.00 72 1009.3
20260509222225 72 240 1.0 4.0 0.00 0.00 0.00 73 1009.2
20260509221730 72 225 2.0 4.0 0.00 0.00 0.00 73 1009.2
20260509221724 72 250 1.0 4.0 0.00 0.00 0.00 73 1009.2
20260509220727 72 223 2.0 4.0 0.00 0.00 0.00 74 1009.1
20260509220226 72 268 2.0 5.0 0.00 0.00 0.00 73 1009.0
20260509215731 72 267 2.0 5.0 0.00 0.00 0.00 74 1009.0
20260509215726 72 232 1.0 5.0 0.00 0.00 0.00 73 1009.0
20260509214730 72 252 2.0 8.0 0.00 0.00 0.00 72 1009.2
20260509214725 72 225 2.0 8.0 0.00 0.00 0.00 73 1009.2
20260509213730 72 257 2.0 5.0 0.00 0.00 0.00 74 1009.2
20260509213725 72 261 2.0 4.0 0.00 0.00 0.00 73 1009.1
20260509212726 72 222 2.0 6.0 0.00 0.00 0.00 72 1009.2
20260509212224 72 226 3.0 6.0 0.00 0.00 0.00 72 1009.1
20260509211726 72 216 3.0 7.0 0.00 0.00 0.00 72 1009.1
20260509211225 73 232 2.0 7.0 0.00 0.00 0.00 72 1009.1
20260509210724 73 232 2.0 8.0 0.00 0.00 0.00 72 1008.9
20260509210230 73 218 2.0 5.0 0.00 0.00 0.00 70 1009.0
20260509210224 73 248 2.0 8.0 0.00 0.00 0.00 70 1008.9
20260509205224 73 257 2.0 7.0 0.00 0.00 0.00 69 1009.0
20260509204724 73 235 3.0 7.0 0.00 0.00 0.00 69 1009.0
20260509204224 73 243 3.0 7.0 0.00 0.00 0.00 69 1008.9
20260509203726 73 266 2.0 5.0 0.00 0.00 0.00 69 1008.9
20260509203224 74 214 1.0 5.0 0.00 0.00 0.00 68 1009.0
20260509202725 73 226 1.0 4.0 0.00 0.00 0.00 68 1008.9
20260509202226 73 214 1.0 4.0 0.00 0.00 0.00 69 1008.9